| time (UTC) | temp C | wind direction | speed KPH | gust KPH | rain 1hr cm | rain 24hr cm | rain mn cm | humidity % | barometer mb |
| 20260906113049 | 21 | 216 | 0.0 | 0.0 | 0.00 | 0.91 | 0.00 | 96 | 1010.7 |
| 20260906111550 | 21 | 216 | 0.0 | 0.0 | 0.00 | 0.91 | 0.00 | 96 | 1010.5 |
| 20260906110048 | 21 | 217 | 0.0 | 0.0 | 0.00 | 0.91 | 0.00 | 96 | 1010.1 |
| 20260906104549 | 21 | 216 | 0.0 | 0.0 | 0.00 | 0.91 | 0.00 | 96 | 1010.1 |
| 20260906103048 | 22 | 216 | 0.0 | 0.0 | 0.00 | 0.91 | 0.00 | 96 | 1010.1 |
| 20260906101546 | 22 | 217 | 0.0 | 0.0 | 0.00 | 0.91 | 0.00 | 96 | 1010.1 |
| 20260906100043 | 22 | 216 | 0.0 | 0.0 | 0.00 | 0.91 | 0.00 | 96 | 1010.0 |
| 20260906094555 | 22 | 217 | 0.0 | 0.0 | 0.00 | 0.91 | 0.00 | 96 | 1009.8 |
| 20260906093048 | 22 | 217 | 0.0 | 0.0 | 0.00 | 0.91 | 0.00 | 96 | 1009.7 |
| 20260906091542 | 22 | 216 | 0.0 | 0.0 | 0.00 | 0.91 | 0.00 | 95 | 1009.9 |
| 20260906090051 | 22 | 217 | 0.0 | 0.0 | 0.00 | 0.91 | 0.00 | 95 | 1009.8 |
| 20260906084543 | 22 | 217 | 0.0 | 0.0 | 0.00 | 0.91 | 0.00 | 95 | 1009.9 |
| 20260906083046 | 22 | 216 | 0.0 | 0.0 | 0.00 | 0.91 | 0.00 | 95 | 1009.7 |
| 20260906081538 | 22 | 216 | 0.0 | 0.0 | 0.00 | 0.91 | 0.00 | 95 | 1009.4 |
| 20260906080045 | 22 | 217 | 0.0 | 0.0 | 0.00 | 0.91 | 0.00 | 95 | 1009.6 |
| 20260906074537 | 22 | 216 | 0.0 | 0.0 | 0.00 | 0.91 | 0.00 | 95 | 1009.6 |
| 20260906073035 | 22 | 217 | 0.0 | 0.0 | 0.00 | 0.91 | 0.00 | 95 | 1009.4 |
| 20260906071535 | 22 | 217 | 0.0 | 0.0 | 0.00 | 0.91 | 0.00 | 95 | 1009.4 |
| 20260906070033 | 22 | 216 | 0.0 | 0.0 | 0.00 | 0.91 | 0.00 | 95 | 1009.7 |
| 20260906064533 | 22 | 217 | 0.0 | 0.0 | 0.00 | 0.91 | 0.00 | 95 | 1009.9 |
| 20260906063028 | 22 | 217 | 0.0 | 0.0 | 0.00 | 0.91 | 0.00 | 95 | 1010.1 |
| 20260906061529 | 22 | 216 | 0.0 | 0.0 | 0.00 | 0.91 | 0.00 | 95 | 1010.3 |
| 20260906060026 | 22 | 217 | 0.0 | 0.0 | 0.00 | 0.91 | 0.00 | 95 | 1010.1 |
| 20260906054525 | 22 | 217 | 0.0 | 0.0 | 0.00 | 0.91 | 0.00 | 95 | 1010.0 |
| 20260906053024 | 22 | 217 | 0.0 | 0.0 | 0.00 | 0.91 | 0.00 | 95 | 1010.1 |
| 20260906051522 | 22 | 216 | 0.0 | 0.0 | 0.00 | 0.91 | 0.00 | 95 | 1010.1 |
| 20260906050021 | 22 | 216 | 0.0 | 0.0 | 0.00 | 0.91 | 0.00 | 95 | 1010.3 |
| 20260906044519 | 22 | 217 | 0.0 | 0.0 | 0.00 | 0.91 | 0.00 | 95 | 1010.3 |
| 20260906043027 | 22 | 217 | 0.0 | 0.0 | 0.00 | 0.91 | 0.00 | 95 | 1010.5 |
| 20260906041518 | 23 | 216 | 0.0 | 0.0 | 0.00 | 0.91 | 0.00 | 95 | 1010.3 |
| 20260906040013 | 23 | 217 | 0.0 | 0.0 | 0.00 | 0.91 | 0.00 | 95 | 1010.6 |
| 20260906034520 | 23 | 217 | 0.0 | 0.0 | 0.00 | 0.91 | 0.91 | 95 | 1010.7 |
| 20260906033012 | 23 | 217 | 0.0 | 0.0 | 0.00 | 0.91 | 0.91 | 94 | 1010.5 |
| 20260906031515 | 23 | 216 | 0.0 | 0.0 | 0.00 | 0.91 | 0.91 | 94 | 1010.6 |
| 20260906030011 | 23 | 217 | 0.0 | 0.0 | 0.00 | 0.91 | 0.91 | 94 | 1010.7 |
| 20260906024510 | 23 | 217 | 0.0 | 0.0 | 0.00 | 0.91 | 0.91 | 94 | 1010.6 |
| 20260906023009 | 23 | 216 | 0.0 | 0.0 | 0.00 | 0.91 | 0.91 | 94 | 1010.5 |
| 20260906021510 | 23 | 217 | 0.0 | 0.0 | 0.00 | 0.91 | 0.91 | 94 | 1010.0 |
| 20260906020009 | 23 | 216 | 0.0 | 0.0 | 0.00 | 0.91 | 0.91 | 93 | 1009.8 |
| 20260906014509 | 23 | 216 | 0.0 | 0.0 | 0.00 | 0.91 | 0.91 | 93 | 1009.7 |
| 20260906013008 | 24 | 217 | 0.0 | 0.0 | 0.00 | 0.91 | 0.91 | 93 | 1009.6 |
| 20260906011508 | 24 | 217 | 0.0 | 0.0 | 0.00 | 0.91 | 0.91 | 93 | 1009.5 |
| 20260906010007 | 25 | 216 | 0.0 | 0.0 | 0.00 | 0.91 | 0.91 | 93 | 1009.5 |
| 20260906004507 | 25 | 216 | 0.0 | 0.0 | 0.00 | 0.91 | 0.91 | 94 | 1009.5 |
| 20260906003006 | 25 | 216 | 0.0 | 0.0 | 0.00 | 0.91 | 0.91 | 94 | 1009.3 |
| 20260906001506 | 26 | 217 | 0.0 | 0.0 | 0.00 | 0.91 | 0.91 | 94 | 1009.3 |
| 20260906000006 | 26 | 216 | 0.0 | 0.0 | 0.00 | 0.91 | 0.91 | 94 | 1009.6 |
| 20260905234506 | 26 | 217 | 0.0 | 0.0 | 0.00 | 0.91 | 0.91 | 94 | 1009.4 |
| 20260905233004 | 26 | 217 | 0.0 | 0.0 | 0.00 | 0.91 | 0.91 | 94 | 1009.3 |
| 20260905231511 | 27 | 217 | 0.0 | 0.0 | 0.00 | 0.91 | 0.91 | 95 | 1009.3 |
| 20260905230004 | 27 | 217 | 0.0 | 0.0 | 0.00 | 0.91 | 0.91 | 95 | 1009.4 |
| 20260905224503 | 27 | 217 | 0.0 | 0.0 | 0.00 | 0.91 | 0.91 | 95 | 1009.3 |
| 20260905223004 | 26 | 217 | 0.0 | 0.0 | 0.00 | 0.91 | 0.91 | 95 | 1009.3 |
| 20260905221502 | 26 | 217 | 0.0 | 0.0 | 0.18 | 0.91 | 0.91 | 94 | 1009.2 |
| 20260905220100 | 25 | 217 | 0.0 | 0.0 | 0.91 | 0.91 | 0.91 | 93 | 1009.3 |
| 20260905220001 | 25 | 216 | 0.0 | 0.0 | 0.91 | 0.91 | 0.91 | 93 | 1009.3 |
| 20260905214600 | 25 | 217 | 0.0 | 0.0 | 0.91 | 0.91 | 0.91 | 92 | 1009.5 |
| 20260905213058 | 26 | 217 | 0.0 | 0.0 | 0.91 | 0.91 | 0.91 | 89 | 1009.5 |
| 20260905211606 | 28 | 215 | 0.0 | 16.1 | 0.71 | 0.71 | 0.71 | 78 | 1009.7 |
| 20260905210115 | 31 | 182 | 0.0 | 0.0 | 0.00 | 0.00 | 0.00 | 80 | 1009.9 |
| 20260905204559 | 32 | 184 | 0.0 | 0.0 | 0.00 | 0.00 | 0.00 | 72 | 1009.7 |
| 20260905203054 | 32 | 188 | 0.0 | 0.0 | 0.00 | 0.00 | 0.00 | 69 | 1009.8 |
| 20260905201552 | 31 | 188 | 0.0 | 0.0 | 0.00 | 0.00 | 0.00 | 71 | 1009.9 |
| 20260905200113 | 31 | 188 | 0.0 | 0.0 | 0.00 | 0.00 | 0.00 | 68 | 1009.9 |
| 20260905194552 | 32 | 67 | 0.0 | 0.0 | 0.00 | 0.00 | 0.00 | 68 | 1010.2 |
| 20260905193047 | 32 | 110 | 0.0 | 0.0 | 0.00 | 0.00 | 0.00 | 69 | 1010.3 |
| 20260905191544 | 32 | 32 | 0.0 | 1.6 | 0.00 | 0.00 | 0.00 | 74 | 1010.7 |
| 20260905190041 | 31 | 30 | 0.0 | 4.8 | 0.00 | 0.00 | 0.00 | 71 | 1011.0 |
| 20260905184549 | 31 | 47 | 3.2 | 12.9 | 0.00 | 0.00 | 0.00 | 71 | 1011.2 |
| 20260905183043 | 31 | 20 | 0.0 | 1.6 | 0.00 | 0.00 | 0.00 | 72 | 1011.2 |
| 20260905181544 | 31 | 80 | 0.0 | 0.0 | 0.00 | 0.00 | 0.00 | 69 | 1011.7 |
| 20260905180042 | 28 | 80 | 0.0 | 4.8 | 0.00 | 0.00 | 0.00 | 81 | 1011.9 |
| 20260905174537 | 27 | 107 | 0.0 | 6.4 | 0.00 | 0.00 | 0.00 | 79 | 1012.2 |
| 20260905173044 | 27 | 59 | 0.0 | 0.0 | 0.00 | 0.00 | 0.00 | 80 | 1012.2 |
| 20260905171538 | 27 | 59 | 0.0 | 0.0 | 0.00 | 0.00 | 0.00 | 77 | 1012.2 |
| 20260905170037 | 27 | 59 | 0.0 | 9.7 | 0.00 | 0.00 | 0.00 | 76 | 1012.3 |
| 20260905164533 | 27 | 53 | 1.6 | 14.5 | 0.00 | 0.00 | 0.00 | 76 | 1012.9 |
| 20260905163031 | 30 | 28 | 4.8 | 19.3 | 0.00 | 0.00 | 0.00 | 67 | 1013.2 |
| 20260905161529 | 31 | 49 | 0.0 | 4.8 | 0.00 | 0.00 | 0.00 | 74 | 1012.2 |
| 20260905160025 | 30 | 185 | 0.0 | 1.6 | 0.00 | 0.00 | 0.00 | 74 | 1011.9 |
| 20260905154522 | 30 | 126 | 0.0 | 8.0 | 0.00 | 0.00 | 0.00 | 77 | 1012.0 |
| 20260905153026 | 28 | 191 | 0.0 | 8.0 | 0.00 | 0.00 | 0.00 | 79 | 1012.0 |
| 20260905151514 | 28 | 191 | 1.6 | 9.7 | 0.00 | 0.00 | 0.00 | 80 | 1012.1 |
| 20260905150017 | 27 | 184 | 0.0 | 0.0 | 0.00 | 0.00 | 0.00 | 84 | 1012.3 |
| 20260905144512 | 26 | 158 | 0.0 | 0.0 | 0.00 | 0.00 | 0.00 | 88 | 1012.6 |
| 20260905143002 | 25 | 158 | 0.0 | 0.0 | 0.00 | 0.00 | 0.00 | 90 | 1012.6 |
| 20260905141559 | 25 | 157 | 0.0 | 0.0 | 0.00 | 0.00 | 0.00 | 93 | 1012.6 |
| 20260905140055 | 24 | 158 | 0.0 | 0.0 | 0.00 | 0.00 | 0.00 | 95 | 1012.6 |
| 20260905134551 | 23 | 157 | 0.0 | 0.0 | 0.00 | 0.00 | 0.00 | 95 | 1012.7 |
| 20260905133047 | 23 | 157 | 0.0 | 0.0 | 0.00 | 0.00 | 0.00 | 95 | 1012.8 |
| 20260905131555 | 22 | 157 | 0.0 | 0.0 | 0.00 | 0.00 | 0.00 | 95 | 1013.0 |
| 20260905130043 | 22 | 158 | 0.0 | 0.0 | 0.00 | 0.00 | 0.00 | 95 | 1013.2 |
| 20260905124542 | 22 | 157 | 0.0 | 0.0 | 0.00 | 0.00 | 0.00 | 96 | 1013.1 |
| 20260905123101 | 21 | 157 | 0.0 | 0.0 | 0.00 | 0.00 | 0.00 | 96 | 1013.1 |
| 20260905121536 | 21 | 157 | 0.0 | 0.0 | 0.00 | 0.00 | 0.00 | 95 | 1012.9 |
| 20260905120032 | 21 | 157 | 0.0 | 0.0 | 0.00 | 0.00 | 0.00 | 95 | 1012.7 |
| 20260905114531 | 21 | 158 | 0.0 | 0.0 | 0.00 | 0.00 | 0.00 | 95 | 1012.5 |